Probability
0 0 0 0 0 0 0 0 0 0 0 0 0 0 0 0 0 0 0 0 0 0 0 0 0 0 0 0 0 0 0 0 0 0 0 0 0 0 0 0 0 0 0
0 0 0 0 0 0 0 0 0 0 0 0 0 0 0 0 0 0 0 0 0 0 0 0 0 0 0 0 0 0 0 0 0 0 0 0 0 0 0 0 0 0 0
0 0 0 0 0 0 0 0 0 0 0 0 0 0 0 0 0 0 0 0 0 0 0 0 0 0 0 0 0 0 0 0 0 0 0 0 0 0 0 0 0 0 0
0 0 0 0 0 0 0 0 0 0 0 0 0 0 0 0 0 0 0 0 0 0 0 0 0 0 0 0 0 0 0 0 0 0 0 0 0 0 0 0 0 0 0
0 0 0 0 0 0 0 0 0 0 0 0 0 0 0 0 0 0 0 0 0 0 0 0 0 0 0 0 0 0 0 0 0 0 0 0 0 0 0 0 0 0 0
0 0 0 0 0 0 0 0 0 0 0 0 0 0 0 0 0 0 0 0 0 0 0 0 0 0 0 0 0 0 0 0 0 0 0 0 0 0 0 0 0 0 0
0 0 0 0 0 0 0 0 0 0 0 0 0 0 0 0 0 0 0 0 0 0 0 0 0 0 0 0 0 0 0 0 0 0 0 0 0 0 0 0 0 0 0
0 0 0 0 0 0 0 0 0 0 0 0 0 0 0 0 0 0 0 0 0 0 0 0 0 0 0 0 0 0 0 0 0 0 0 0 0 0 0 0 0 0 0
0 0 0 0 0 0 0 0 0 0 0 0 0 0 0 0 0 0 0 0 0 0 0 0 0 0 0 0 0 0 0 0 0 0 0 0 0 0 0 0 0 0 0
0 0 0 0 0 0 0 0 0 0 0 0 0 0 0 0 0 0 0 0 0 0 0 0 0 0 0 0 0 0 0 0 0 0 0 0 0 0 0 0 0 0 0
0 0 0 0 0 0 0 0 0 0 0 0 0 0 0 0 0 0 0 0 0 0 0 0 0 0 0 0 0 0 0 0 0 0 0 0 0 0 0 0 0 0 0
0 0 0 0 0 0 0 0 0 0 0 0 0 0 0 0 0 0 0 0 0 0 0 0 0 0 0 0 0 0 0 0 0 0 0 0 0 0 0 0 0 0 0
0 0 0 0 0 0 0 0 0 0 0 0 0 0 0 0 0 0 0 0 0 0 0 0 0 0 0 0 0 0 0 0 0 0 0 0 0 0 0 0 0 0 0
0 0 0 0 0 0 0 0 0 0 0 0 0 0 0 0 0 0 0 0 0 0 0 0 0 0 0 0 0 0 0 0 0 0 0 0 0 0 0 0 0 0 0
0 0 0 0 0 0 0 0 0 0 0 0 0 0 0 0 0 0 0 0 0 0 0 0 0 0 0 0 0 0 0 0 0 0 0 0 0 0 0 0 0 0 0
0 0 0 0 0 0 0 0 0 0 0 0 0 0 0 0 0 0 0 0 0 0 0 0 0 0 0 0 0 0 0 0 0 0 0 0 0 0 0 0 0 0 0
0 0 0 0 0 0 0 0 0 0 0 0 0 0 0 0 0 0 0 0 0 0 0 0 0 0 0 0 0 0 0 0 0 0 0 0 0 0 0 0 0 0 0
0 0 0 0 0 0 0 0 0 0 0 0 0 0 0 0 0 0 0 0 0 0 0 0 0 0 0 0 0 0 0 0 0 0 0 0 0 0 0 0 0 0 0
0 0 0 0 0 0 0 0 0 0 0 0 0 0 0 0 0 0 0 0 0 0 0 0 0 0 0 0 0 0 0 0 0 0 0 0 0 0 0 0 0 0 0
0 0 0 0 0 0 0 0 0 0 0 0 0 0 0 0 0 0 0 0 0 0 0 0 0 0 0 0 0 0 0 0 0 0 0 0 0 0 0 0 0 0 0
0 0 0 0 0 0 0 0 0 0 0 0 0 0 0 0 0 0 0 0 0 0 0 0 0 0 0 0 0 0 0 0 0 0 0 0 0 0 0 0 0 0 0
0 0 0 0 0 0 0 0 0 0 0 0 0 0 0 0 0 0 0 0 0 0 0 0 0 0 0 0 0 0 0 0 0 0 0 0 0 0 0 0 0 0 0
0 0 0 0 0 0 0 0 0 0 0 0 0 0 0 0 0 0 0 0 0 0 0 0 0 0 0 0 0 0 0 0 0 0 0 0 0 0 0 0 0 0 0
0 0 0 0 0 0 0 0 0 0 0 0 0 0 0 0 0 0 0 0 0 0 0 0 0 0 0 0 0 0 0 0 0 0 0 0 0 0 0 0 0 0 0
0 0 0 0 0 0 0 0 0 0 0 0 0 0 0 0 0 0 0 0 0 0 0 0 0 0 0 0 0 0 0 0 0 0 0 0 0 0 0 0 0 0 0
0 0 0 0 0 0 0 0 0 0 0 0 0 0 0 0 0 0 0 0 0 0 0 0 0 0 0 0 0 0 0 0 0 0 0 0 0 0 0 0 0 0 0
Height
5733 5735 5737 5739 5740 5742 5743 5744 5744 5745 5745 5745 5745 5745 5745 5744 5742 5741 5739 5737 5735 5732 5730 5727 5724 5721 5718 5715 5711 5708 5704 5701 5698 5694 5690 5686 5682 5679 5675 5671 5668 5664 5661
5722 5724 5726 5727 5729 5730 5731 5732 5733 5733 5734 5734 5734 5734 5733 5732 5731 5730 5728 5726 5724 5722 5720 5717 5714 5711 5708 5705 5702 5699 5695 5692 5689 5685 5681 5678 5674 5670 5667 5663 5660 5657 5653
5711 5713 5715 5716 5718 5719 5720 5721 5721 5722 5722 5723 5722 5722 5722 5721 5720 5719 5717 5715 5714 5712 5709 5707 5704 5702 5699 5696 5693 5690 5686 5683 5679 5676 5673 5669 5666 5662 5659 5656 5652 5649 5646
5700 5702 5704 5705 5707 5708 5709 5709 5710 5710 5711 5711 5711 5711 5710 5710 5709 5707 5706 5705 5703 5701 5699 5697 5695 5693 5690 5687 5684 5681 5678 5674 5671 5668 5664 5661 5658 5654 5651 5648 5645 5642 5639
5690 5691 5693 5694 5696 5697 5697 5698 5699 5699 5699 5700 5700 5699 5699 5699 5698 5697 5696 5695 5693 5692 5690 5688 5686 5684 5681 5678 5676 5672 5669 5666 5663 5660 5656 5653 5650 5646 5643 5640 5637 5634 5631
5680 5681 5682 5683 5685 5686 5686 5687 5688 5688 5688 5689 5689 5689 5688 5688 5688 5687 5686 5685 5684 5683 5681 5679 5677 5675 5673 5670 5667 5664 5661 5658 5655 5651 5648 5645 5641 5638 5635 5632 5628 5625 5622
5670 5671 5672 5673 5674 5675 5676 5677 5677 5678 5678 5678 5678 5678 5678 5678 5678 5677 5677 5676 5675 5674 5672 5671 5669 5667 5664 5661 5659 5656 5652 5649 5646 5643 5640 5636 5633 5630 5626 5623 5620 5616 5613
5661 5662 5662 5663 5664 5665 5666 5667 5667 5668 5668 5668 5669 5669 5669 5669 5669 5668 5668 5667 5667 5665 5664 5662 5660 5658 5655 5653 5650 5647 5644 5641 5638 5634 5631 5627 5624 5620 5617 5614 5610 5607 5603
5652 5652 5653 5654 5655 5656 5657 5657 5658 5659 5659 5659 5660 5660 5660 5660 5660 5660 5660 5659 5658 5657 5656 5654 5652 5649 5647 5644 5641 5638 5635 5632 5629 5625 5622 5618 5614 5611 5607 5604 5600 5596 5593
5643 5644 5644 5645 5646 5647 5648 5649 5649 5650 5651 5651 5651 5652 5652 5652 5652 5652 5652 5651 5650 5649 5647 5645 5643 5641 5638 5635 5632 5629 5626 5623 5620 5616 5612 5608 5604 5600 5597 5593 5589 5585 5581
5635 5636 5636 5637 5638 5639 5640 5641 5641 5642 5643 5643 5644 5644 5644 5645 5645 5644 5644 5643 5642 5640 5638 5636 5634 5632 5629 5626 5623 5620 5617 5613 5610 5606 5602 5598 5594 5590 5586 5582 5577 5573 5569
5628 5628 5629 5630 5631 5631 5632 5633 5634 5634 5635 5635 5636 5636 5637 5637 5637 5636 5635 5634 5633 5631 5629 5627 5625 5623 5620 5617 5614 5610 5607 5603 5599 5596 5592 5587 5583 5579 5574 5570 5565 5561 5556
5621 5621 5622 5623 5624 5624 5625 5626 5626 5627 5628 5628 5628 5629 5629 5629 5628 5628 5627 5625 5624 5622 5620 5618 5616 5613 5610 5607 5604 5600 5596 5593 5589 5585 5580 5576 5572 5567 5562 5558 5553 5548 5543
5614 5615 5615 5616 5617 5617 5618 5619 5619 5620 5620 5620 5621 5621 5621 5620 5620 5619 5618 5616 5615 5613 5611 5608 5606 5603 5600 5596 5593 5589 5585 5582 5577 5573 5569 5564 5560 5555 5550 5545 5540 5534 5529
5607 5608 5609 5609 5610 5611 5611 5612 5612 5613 5613 5613 5613 5613 5612 5612 5611 5610 5608 5607 5605 5603 5601 5598 5595 5592 5589 5585 5582 5578 5574 5570 5566 5562 5557 5552 5547 5542 5537 5532 5526 5521 5515
5601 5601 5602 5603 5603 5604 5604 5605 5605 5605 5605 5605 5605 5604 5604 5603 5602 5600 5599 5597 5595 5593 5590 5587 5584 5581 5578 5574 5571 5567 5563 5559 5554 5550 5545 5540 5535 5529 5524 5519 5513 5507 5501
5594 5594 5595 5596 5596 5597 5597 5597 5597 5597 5597 5596 5596 5595 5594 5593 5592 5590 5588 5586 5584 5582 5579 5576 5573 5570 5566 5563 5559 5555 5551 5547 5542 5537 5532 5527 5522 5516 5511 5505 5499 5493 5487
5586 5587 5587 5588 5588 5589 5589 5589 5589 5589 5588 5588 5587 5586 5584 5583 5582 5580 5578 5576 5573 5571 5568 5565 5562 5558 5555 5551 5547 5543 5539 5534 5530 5525 5520 5514 5509 5503 5497 5491 5485 5479 5473
5578 5578 5579 5579 5580 5580 5580 5580 5580 5579 5579 5578 5577 5576 5574 5573 5571 5569 5567 5565 5562 5559 5557 5553 5550 5547 5543 5539 5535 5531 5526 5522 5517 5512 5507 5501 5496 5490 5484 5477 5471 5465 5459
5569 5570 5570 5570 5571 5570 5570 5570 5570 5569 5569 5568 5567 5565 5564 5562 5560 5558 5556 5553 5551 5548 5545 5542 5539 5535 5532 5528 5523 5519 5514 5510 5505 5500 5494 5488 5482 5476 5470 5463 5457 5451 5444
5560 5560 5561 5561 5561 5561 5561 5560 5560 5559 5558 5557 5556 5555 5553 5551 5549 5547 5545 5542 5540 5537 5534 5531 5527 5524 5520 5516 5512 5507 5502 5497 5492 5487 5481 5475 5469 5462 5456 5449 5443 5436 5430
5551 5551 5551 5551 5551 5551 5551 5550 5550 5549 5548 5547 5545 5544 5542 5540 5538 5536 5534 5531 5528 5526 5523 5519 5516 5512 5509 5505 5500 5495 5490 5485 5480 5474 5468 5461 5455 5448 5442 5435 5429 5422 5415
5541 5541 5541 5542 5542 5541 5541 5540 5539 5538 5537 5536 5534 5533 5531 5529 5527 5525 5522 5520 5517 5514 5511 5508 5505 5501 5497 5493 5488 5483 5478 5473 5467 5461 5455 5448 5441 5435 5428 5422 5415 5408 5401
5531 5532 5532 5532 5532 5532 5531 5530 5529 5528 5527 5525 5524 5522 5520 5518 5516 5513 5511 5509 5506 5503 5500 5497 5494 5490 5486 5481 5476 5471 5466 5460 5454 5448 5441 5435 5428 5421 5414 5408 5401 5393 5386
5522 5523 5523 5523 5523 5522 5521 5521 5519 5518 5516 5515 5513 5511 5509 5507 5505 5503 5500 5498 5495 5493 5489 5486 5482 5478 5474 5469 5464 5459 5453 5447 5441 5435 5428 5422 5415 5407 5400 5394 5387 5380 5372
5513 5514 5514 5514 5513 5513 5512 5511 5510 5508 5507 5505 5503 5501 5499 5497 5495 5493 5490 5488 5485 5482 5478 5475 5471 5467 5462 5457 5452 5446 5440 5434 5428 5421 5415 5408 5401 5394 5387 5380 5373 5366 5359
Wind_Speed
48 49 49 50 50 50 50 50 50 50 49 49 48 48 48 47 47 47 46 46 45 45 44 43 42 41 41 40 40 40 39 39 39 38 38 38 37 37 35 34 33 32 31
48 48 49 49 50 50 51 51 51 50 50 49 49 48 47 46 46 46 45 45 44 43 42 41 40 40 39 38 38 38 37 37 37 37 37 36 36 35 34 32 32 31 31
46 47 48 48 49 49 49 49 48 48 48 48 47 47 46 45 45 44 43 43 41 41 40 39 38 38 37 37 36 36 36 36 36 36 36 35 35 33 33 32 32 31 31
44 45 46 46 46 47 46 46 46 46 45 45 45 44 44 43 43 41 40 39 38 38 37 36 36 35 35 34 34 34 34 34 34 34 34 34 33 33 33 32 32 31 31
42 42 43 44 44 44 44 44 43 43 42 42 42 41 41 40 40 38 38 36 36 35 34 34 34 33 33 32 32 33 33 33 33 33 33 33 33 33 32 32 32 32 32
40 40 41 41 41 41 41 41 41 41 40 40 39 39 38 38 37 36 35 34 33 33 32 31 31 31 31 31 31 32 32 33 33 33 33 33 33 33 32 33 33 33 33
38 38 38 39 39 39 38 37 37 37 37 37 36 36 36 35 35 34 33 31 31 30 30 29 29 29 30 30 31 32 32 32 32 33 33 33 33 33 33 34 34 35 35
36 36 37 37 37 36 36 35 35 35 34 35 34 34 34 33 32 31 30 29 29 29 28 28 28 28 29 30 30 31 31 32 32 33 33 34 34 35 35 35 36 36 37
35 34 34 34 34 34 34 33 33 32 32 32 32 32 31 30 29 29 28 28 27 27 27 28 28 29 29 30 30 31 32 32 33 34 34 35 35 36 37 37 38 38 38
32 32 32 32 32 31 31 31 31 30 30 30 30 29 29 28 28 27 27 27 27 28 28 28 29 29 30 31 31 32 33 33 34 35 36 36 37 38 38 39 39 40 40
28 28 29 29 29 29 29 29 29 28 28 28 28 28 27 27 27 27 27 28 28 29 29 29 30 30 31 32 33 34 34 35 36 36 37 38 38 39 40 40 41 42 42
27 27 27 27 28 28 28 27 27 27 27 27 26 27 27 27 27 27 28 29 29 30 30 31 31 32 33 34 35 35 36 37 37 38 39 39 40 40 41 42 43 44 45
26 26 26 26 26 26 26 26 26 26 26 26 26 27 27 27 27 28 29 29 30 31 32 32 33 34 35 36 36 37 38 38 39 39 40 40 41 42 43 44 45 46 47
24 25 25 25 25 25 25 25 25 25 25 26 26 27 28 28 29 30 30 31 32 32 33 34 34 35 36 37 37 38 39 39 40 41 41 42 43 44 45 46 47 48 48
23 23 24 24 25 25 25 26 26 26 26 26 27 28 28 29 30 31 32 32 33 34 35 36 36 37 38 38 39 39 40 41 41 42 42 43 44 45 46 47 48 49 50
23 23 24 24 24 25 25 25 26 27 27 28 29 30 30 31 32 33 34 34 35 36 37 38 38 39 39 40 40 40 41 42 42 43 44 45 46 46 47 48 50 50 50
25 25 25 25 25 26 26 26 27 28 29 30 31 32 33 34 35 35 36 37 37 38 38 39 39 40 40 41 41 42 42 43 44 44 45 46 46 47 49 50 50 50 50
26 27 27 28 28 28 29 29 30 30 31 32 32 33 34 35 36 37 38 38 38 39 39 40 40 41 41 41 42 43 43 44 44 45 45 46 47 48 49 50 50 50 50
27 28 28 29 29 30 30 31 31 32 33 33 34 35 36 36 37 37 38 38 39 39 40 40 40 40 41 42 42 43 43 43 44 45 46 47 48 48 49 50 51 51 51
28 29 29 30 30 31 31 32 32 33 33 34 34 35 36 36 37 37 38 38 39 40 40 40 40 40 41 41 42 42 42 43 44 46 47 48 48 49 50 50 51 51 51
29 30 30 30 30 31 32 32 33 33 34 34 35 36 36 37 37 38 39 39 39 40 40 40 40 41 41 41 41 42 43 44 45 46 47 48 49 50 50 50 50 51 51
30 30 30 30 30 31 31 32 32 33 34 34 35 36 37 38 38 39 39 40 40 40 40 40 40 40 40 40 41 43 44 45 46 47 48 49 50 50 50 50 51 51 51
30 29 29 29 29 30 30 31 32 32 33 34 35 36 37 37 38 38 39 39 39 39 39 39 39 40 40 41 42 43 44 45 46 48 49 49 49 50 50 51 51 51 51
28 28 28 29 29 29 30 30 31 32 33 34 34 35 36 36 37 37 37 37 37 37 38 38 39 40 41 41 42 44 45 46 48 49 49 49 49 50 51 51 51 51 51
28 28 28 28 28 28 29 29 30 31 31 32 33 34 34 34 34 34 34 35 35 36 37 38 39 40 41 42 44 45 46 47 48 49 49 49 50 50 51 51 50 50 50
28 28 27 28 28 28 28 29 30 30 30 31 31 32 32 32 32 33 33 34 35 36 37 38 39 40 41 43 44 46 47 47 48 49 49 49 50 50 50 50 50 49 49
Wind_Direction
251 252 253 255 257 258 260 262 264 265 267 269 271 272 274 276 278 280 282 283 284 285 286 286 287 289 290 291 292 293 294 295 296 296 296 297 297 299 297 298 299 299 298
253 254 255 256 258 260 261 263 265 266 267 269 270 272 274 276 278 279 281 282 283 284 284 286 287 288 290 291 292 293 294 296 296 297 297 297 298 298 297 297 298 299 299
255 256 257 258 259 261 262 264 265 267 268 270 271 272 274 275 277 278 279 280 281 282 283 284 286 287 289 291 292 294 295 296 297 298 298 297 297 297 296 296 297 298 298
256 256 258 259 260 261 262 264 265 266 268 269 270 272 273 274 275 276 278 278 279 281 282 284 285 287 289 291 293 295 296 297 298 298 298 298 298 297 296 296 296 297 298
257 257 259 260 261 261 262 263 265 266 266 267 269 270 271 273 273 274 275 276 278 280 281 283 284 287 289 291 294 295 297 298 298 298 298 298 298 297 297 296 296 297 297
258 258 259 260 260 261 262 262 263 264 265 266 267 268 269 270 271 272 273 274 276 278 280 282 285 288 290 292 294 296 298 298 299 299 299 298 298 298 297 297 297 297 297
259 259 259 259 260 260 261 262 263 264 265 265 265 267 267 268 269 270 271 272 275 277 280 283 285 288 291 293 295 296 298 298 299 299 298 298 298 298 297 297 297 297 296
260 260 260 260 260 261 261 262 263 263 264 264 264 265 265 266 266 267 269 271 274 277 280 283 286 289 292 294 296 297 297 298 299 299 299 298 298 298 298 298 297 297 297
261 261 261 261 261 261 261 261 261 262 263 263 263 263 264 263 264 266 268 271 274 277 281 284 287 291 293 295 296 297 298 298 299 299 299 298 298 298 298 297 297 297 297
261 261 260 260 260 260 260 260 260 261 261 261 261 262 262 262 263 265 268 272 275 279 282 286 289 291 293 295 296 297 298 299 299 299 298 298 298 298 298 298 298 297 298
260 260 259 260 260 259 259 259 259 259 259 259 260 260 260 262 264 267 271 274 278 281 285 287 290 291 293 295 296 297 298 298 298 298 298 298 298 299 299 298 298 298 298
258 259 259 259 259 258 258 258 258 258 259 259 259 260 261 264 266 270 273 277 280 283 285 288 290 292 293 295 296 296 297 298 298 299 299 299 299 299 299 298 298 299 299
256 257 257 258 258 257 257 257 257 259 259 260 261 262 264 266 269 273 276 279 282 284 286 289 291 292 293 295 296 296 296 297 298 299 299 299 299 299 299 299 299 299 299
257 257 256 258 258 258 257 258 259 261 261 262 263 265 267 269 272 275 278 281 284 286 288 290 291 292 293 295 296 296 296 297 298 299 299 299 299 300 300 300 300 300 300
256 258 258 258 259 259 259 260 261 262 264 265 266 268 270 272 275 278 280 282 284 286 288 290 291 292 293 294 295 296 296 297 298 299 299 300 300 301 300 301 301 301 301
257 258 259 259 259 261 263 265 265 265 266 267 269 271 273 275 277 279 281 283 285 287 288 289 291 292 293 294 295 295 296 297 298 298 299 300 300 301 301 301 302 302 302
256 258 259 260 261 262 264 266 267 268 269 270 271 273 275 276 278 279 281 283 285 286 288 289 290 291 293 294 295 296 297 297 298 299 300 300 301 301 302 302 302 302 302
258 260 260 261 262 264 265 266 268 269 271 272 274 275 276 278 279 280 281 283 284 286 287 289 290 292 293 294 295 296 297 298 299 300 300 301 301 302 303 303 303 303 302
259 259 260 262 264 265 266 267 269 270 271 273 274 276 277 279 280 281 282 283 285 286 288 289 291 292 293 295 296 297 298 299 300 301 301 302 302 302 303 303 303 302 302
260 261 262 263 265 266 267 269 270 271 272 274 275 276 277 278 279 281 282 284 285 287 289 290 291 293 294 296 297 298 299 300 301 302 302 302 302 303 303 303 303 303 303
262 263 264 265 266 267 268 270 271 273 274 275 275 276 277 279 280 281 283 284 286 287 289 291 292 294 296 297 298 299 300 301 302 303 303 303 303 303 304 304 304 304 304
263 263 264 266 268 269 271 272 273 274 275 276 277 278 279 280 281 282 283 284 286 288 290 292 293 295 296 297 298 300 301 302 303 303 303 304 304 304 304 304 304 305 305
263 263 264 266 269 271 272 274 276 277 277 277 278 279 280 281 282 283 284 285 286 288 290 291 293 295 296 298 299 300 301 303 303 304 304 304 304 304 304 305 305 305 305
262 263 265 267 269 271 274 276 278 279 279 279 281 282 282 283 283 284 285 285 287 288 290 292 294 296 297 299 300 301 302 303 304 305 305 304 304 304 305 305 305 306 305
263 264 266 268 271 273 275 277 279 281 281 281 282 283 284 284 285 285 286 287 289 291 292 294 295 296 298 299 300 301 303 304 305 305 305 305 305 305 305 306 306 306 305
263 266 268 270 272 274 276 278 280 282 283 284 284 284 285 285 286 287 288 289 291 292 294 295 296 297 299 300 301 302 303 304 305 306 305 305 305 306 306 306 306 306 305